AAL715 KLAS-KLAX

Flight info

Callsign AAL715
Flight time N/A
Altitude 28000
Route RADYR2 BLAQQ SHTNR ANJLL4
Aircraft A320/M-SDE3FGHIRWY/LB1

Departure

Time N/A
Airport Harry Reid International Airport (KLAS)

Arrival

Time 2026-05-04 05:40
Airport Los Angeles International Airport (KLAX)
Time Latitude Longitude Altitude Speed Heading
2026-05-04 05:23 34.30621 -116.74634 25082 ft 451 kts 244°
2026-05-04 05:23 34.29255 -116.78049 25207 ft 451 kts 244°
2026-05-04 05:23 34.27894 -116.81458 25331 ft 450 kts 244°
2026-05-04 05:24 34.26531 -116.84868 25456 ft 450 kts 244°
2026-05-04 05:24 34.25187 -116.88217 25579 ft 449 kts 244°
2026-05-04 05:24 34.23819 -116.91612 25704 ft 449 kts 244°
2026-05-04 05:24 34.22451 -116.94999 25829 ft 448 kts 244°
2026-05-04 05:25 34.21128 -116.98417 25954 ft 448 kts 248°
2026-05-04 05:25 34.20113 -117.01972 26080 ft 448 kts 252°
2026-05-04 05:25 34.19148 -117.05547 26205 ft 448 kts 252°
2026-05-04 05:25 34.18180 -117.09130 26329 ft 447 kts 252°
2026-05-04 05:26 34.17209 -117.12715 26455 ft 447 kts 252°
2026-05-04 05:26 34.16254 -117.16240 26578 ft 447 kts 251°
2026-05-04 05:26 34.15283 -117.19808 26703 ft 447 kts 251°
2026-05-04 05:26 34.14305 -117.23375 26363 ft 449 kts 251°
2026-05-04 05:27 34.13304 -117.27007 24679 ft 464 kts 251°
2026-05-04 05:28 34.07142 -117.50907 19172 ft 381 kts 260°
2026-05-04 05:29 34.06716 -117.54032 18271 ft 375 kts 260°
2026-05-04 05:29 34.06277 -117.57115 17390 ft 369 kts 260°
2026-05-04 05:29 34.05834 -117.60140 16519 ft 364 kts 259°
2026-05-04 05:29 34.05390 -117.63115 15660 ft 358 kts 259°
2026-05-04 05:31 34.02537 -117.82193 11014 ft 307 kts 259°
2026-05-04 05:31 34.02164 -117.84711 10353 ft 303 kts 259°
2026-05-04 05:32 34.01792 -117.87202 9700 ft 300 kts 259°
2026-05-04 05:32 34.01422 -117.89657 9052 ft 296 kts 259°
2026-05-04 05:32 34.01054 -117.92084 8411 ft 293 kts 259°
2026-05-04 05:33 34.00340 -117.96840 7150 ft 287 kts 259°
2026-05-04 05:33 33.99995 -117.99142 6453 ft 286 kts 259°
2026-05-04 05:33 33.99639 -118.01506 5690 ft 287 kts 259°
2026-05-04 05:33 33.99282 -118.03870 5070 ft 283 kts 259°
2026-05-04 05:34 33.98939 -118.06136 4857 ft 265 kts 259°
2026-05-04 05:34 33.98621 -118.08239 4734 ft 245 kts 259°
2026-05-04 05:34 33.98314 -118.10173 4627 ft 227 kts 259°
2026-05-04 05:34 33.98062 -118.12027 4550 ft 223 kts 262°
2026-05-04 05:35 33.97928 -118.13257 4430 ft 223 kts 262°
2026-05-04 05:35 33.97681 -118.15723 4093 ft 220 kts 263°
2026-05-04 05:35 33.97561 -118.16932 3897 ft 219 kts 263°
2026-05-04 05:35 33.97378 -118.18755 3607 ft 218 kts 263°
2026-05-04 05:36 33.97138 -118.21155 3231 ft 216 kts 263°
2026-05-04 05:36 33.96960 -118.22918 2939 ft 207 kts 263°
2026-05-04 05:36 33.96847 -118.24044 2755 ft 202 kts 262°
2026-05-04 05:36 33.96680 -118.25704 2495 ft 198 kts 262°
2026-05-04 05:37 33.96514 -118.27342 2234 ft 196 kts 262°
2026-05-04 05:37 33.96350 -118.28968 1975 ft 195 kts 262°
2026-05-04 05:37 33.96186 -118.30588 1718 ft 194 kts 262°
2026-05-04 05:38 33.95860 -118.33808 1204 ft 192 kts 262°
2026-05-04 05:38 33.95699 -118.35394 958 ft 184 kts 262°
2026-05-04 05:38 33.95551 -118.36852 710 ft 167 kts 262°
2026-05-04 05:38 33.95416 -118.38174 521 ft 150 kts 262°
2026-05-04 05:39 33.95296 -118.39369 285 ft 142 kts 262°
2026-05-04 05:39 33.95073 -118.41503 126 ft 93 kts 263°
2026-05-04 05:39 33.95011 -118.42103 126 ft 62 kts 262°
2026-05-04 05:40 33.94836 -118.42699 126 ft 25 kts 228°
2026-05-04 05:40 33.94686 -118.42777 126 ft 15 kts 185°
2026-05-04 05:40 33.94680 -118.42778 126 ft 0 kts 185°
2026-05-04 05:54 33.94672 -118.42778 126 ft 6 kts 185°
2026-05-04 05:55 33.94635 -118.42725 126 ft 10 kts 96°
2026-05-04 05:55 33.94640 -118.42627 126 ft 13 kts 82°
2026-05-04 05:55 33.94654 -118.42511 126 ft 16 kts 82°
2026-05-04 05:55 33.94540 -118.40779 126 ft 0 kts 96°